| time (UTC) | temp C | wind direction | speed KPH | gust KPH | rain 1hr cm | rain 24hr cm | rain mn cm | humidity % | barometer mb |
| 20260507010632 | 18 | 0 | 0.0 | 0.0 | 0.00 | 0.43 | 0.43 | 60 | 757.5 |
| 20260507005053 | 18 | 0 | 0.0 | 4.8 | 0.00 | 0.43 | 0.43 | 60 | 757.5 |
| 20260507004053 | 18 | 0 | 0.0 | 4.8 | 0.00 | 0.43 | 0.43 | 60 | 757.5 |
| 20260507003053 | 18 | 0 | 0.0 | 0.0 | 0.00 | 0.43 | 0.43 | 60 | 757.5 |
| 20260507001512 | 18 | 0 | 0.0 | 3.2 | 0.00 | 0.43 | 0.43 | 59 | 757.5 |
| 20260507000512 | 18 | 205 | 1.6 | 3.2 | 0.00 | 0.43 | 0.43 | 59 | 757.5 |
| 20260506235513 | 19 | 0 | 0.0 | 3.2 | 0.00 | 0.43 | 0.43 | 59 | 757.5 |
| 20260506233929 | 19 | 0 | 0.0 | 1.6 | 0.00 | 0.43 | 0.43 | 58 | 757.5 |
| 20260506232930 | 19 | 0 | 0.0 | 1.6 | 0.00 | 0.43 | 0.43 | 58 | 757.5 |
| 20260506231930 | 19 | 0 | 0.0 | 0.0 | 0.00 | 0.43 | 0.43 | 58 | 757.5 |
| 20260506230347 | 19 | 0 | 0.0 | 0.0 | 0.00 | 0.43 | 0.43 | 57 | 757.5 |
| 20260506225347 | 19 | 0 | 0.0 | 0.0 | 0.00 | 0.43 | 0.43 | 57 | 757.5 |
| 20260506224347 | 20 | 0 | 0.0 | 0.0 | 0.00 | 0.43 | 0.43 | 57 | 757.5 |
| 20260506222802 | 20 | 0 | 0.0 | 3.2 | 0.00 | 0.43 | 0.43 | 57 | 757.5 |
| 20260506221802 | 20 | 205 | 1.6 | 4.8 | 0.00 | 0.43 | 0.43 | 58 | 757.5 |
| 20260506220801 | 19 | 204 | 1.6 | 4.8 | 0.00 | 0.43 | 0.43 | 58 | 757.5 |
| 20260506215217 | 19 | 205 | 1.6 | 4.8 | 0.00 | 0.43 | 0.43 | 57 | 757.5 |
| 20260506214217 | 19 | 209 | 3.2 | 6.4 | 0.00 | 0.43 | 0.43 | 56 | 757.5 |
| 20260506213216 | 19 | 210 | 3.2 | 6.4 | 0.00 | 0.43 | 0.43 | 56 | 757.5 |
| 20260506211622 | 18 | 0 | 0.0 | 0.0 | 0.00 | 0.43 | 0.43 | 56 | 757.5 |
| 20260506210622 | 18 | 0 | 0.0 | 8.0 | 0.00 | 0.43 | 0.43 | 56 | 757.5 |
| 20260506205621 | 18 | 209 | 3.2 | 4.8 | 0.00 | 0.43 | 0.43 | 57 | 757.5 |
| 20260506204037 | 18 | 209 | 3.2 | 4.8 | 0.00 | 0.43 | 0.43 | 57 | 757.5 |
| 20260506203037 | 18 | 209 | 1.6 | 6.4 | 0.00 | 0.43 | 0.43 | 56 | 757.5 |
| 20260506202036 | 18 | 209 | 3.2 | 6.4 | 0.00 | 0.43 | 0.43 | 56 | 757.5 |
| 20260506200446 | 18 | 209 | 3.2 | 4.8 | 0.03 | 0.43 | 0.43 | 56 | 757.5 |
| 20260506195446 | 18 | 205 | 1.6 | 6.4 | 0.03 | 0.43 | 0.43 | 56 | 757.5 |
| 20260506194446 | 17 | 211 | 3.2 | 9.7 | 0.03 | 0.43 | 0.43 | 56 | 757.5 |
| 20260506192857 | 17 | 212 | 4.8 | 8.0 | 0.03 | 0.43 | 0.43 | 57 | 757.5 |
| 20260506191857 | 17 | 218 | 3.2 | 6.4 | 0.03 | 0.43 | 0.43 | 59 | 757.5 |
| 20260506190857 | 17 | 202 | 3.2 | 9.7 | 0.05 | 0.43 | 0.43 | 60 | 757.5 |
| 20260506185306 | 16 | 190 | 3.2 | 9.7 | 0.03 | 0.41 | 0.41 | 60 | 757.5 |
| 20260506184303 | 16 | 196 | 3.2 | 9.7 | 0.03 | 0.41 | 0.41 | 59 | 757.5 |
| 20260506183303 | 16 | 209 | 8.0 | 12.9 | 0.03 | 0.41 | 0.41 | 58 | 757.5 |
| 20260506181732 | 16 | 215 | 6.4 | 9.7 | 0.05 | 0.41 | 0.41 | 58 | 757.5 |
| 20260506180731 | 16 | 207 | 4.8 | 8.0 | 0.03 | 0.38 | 0.38 | 57 | 757.5 |
| 20260506175731 | 16 | 204 | 6.4 | 9.7 | 0.05 | 0.38 | 0.38 | 58 | 757.5 |
| 20260506174141 | 16 | 210 | 6.4 | 12.9 | 0.05 | 0.38 | 0.38 | 59 | 757.5 |
| 20260506173141 | 16 | 211 | 8.0 | 14.5 | 0.08 | 0.38 | 0.38 | 60 | 757.5 |
| 20260506172140 | 16 | 211 | 6.4 | 14.5 | 0.05 | 0.36 | 0.36 | 60 | 757.5 |
| 20260506170548 | 16 | 214 | 6.4 | 12.9 | 0.08 | 0.36 | 0.36 | 60 | 757.5 |
| 20260506165548 | 16 | 217 | 4.8 | 11.3 | 0.08 | 0.33 | 0.33 | 60 | 757.5 |
| 20260506164547 | 16 | 198 | 4.8 | 11.3 | 0.10 | 0.33 | 0.33 | 60 | 757.5 |
| 20260506162953 | 16 | 211 | 6.4 | 12.9 | 0.10 | 0.30 | 0.30 | 60 | 757.5 |
| 20260506161953 | 16 | 211 | 4.8 | 9.7 | 0.10 | 0.30 | 0.30 | 60 | 757.5 |
| 20260506160953 | 15 | 203 | 4.8 | 11.3 | 0.10 | 0.28 | 0.28 | 59 | 757.5 |
| 20260506155358 | 16 | 205 | 4.8 | 12.9 | 0.10 | 0.25 | 0.25 | 58 | 757.5 |
| 20260506154400 | 16 | 198 | 4.8 | 9.7 | 0.10 | 0.23 | 0.23 | 58 | 757.5 |
| 20260506153358 | 16 | 201 | 4.8 | 8.0 | 0.13 | 0.23 | 0.23 | 58 | 757.5 |
| 20260506151811 | 16 | 210 | 3.2 | 4.8 | 0.15 | 0.20 | 0.20 | 59 | 757.5 |
| 20260506150811 | 16 | 207 | 1.6 | 6.4 | 0.15 | 0.18 | 0.18 | 59 | 757.5 |
| 20260506145810 | 16 | 207 | 4.8 | 9.7 | 0.13 | 0.15 | 0.15 | 59 | 757.5 |
| 20260506144210 | 16 | 214 | 1.6 | 4.8 | 0.13 | 0.13 | 0.13 | 59 | 757.5 |
| 20260506143210 | 16 | 214 | 3.2 | 4.8 | 0.10 | 0.10 | 0.10 | 60 | 757.5 |
| 20260506142210 | 16 | 195 | 1.6 | 8.0 | 0.08 | 0.08 | 0.08 | 61 | 757.5 |
| 20260506140625 | 17 | 205 | 4.8 | 9.7 | 0.03 | 0.03 | 0.03 | 63 | 757.5 |
| 20260506135625 | 17 | 201 | 3.2 | 11.3 | 0.03 | 0.03 | 0.03 | 63 | 757.5 |
| 20260506134625 | 17 | 203 | 4.8 | 8.0 | 0.00 | 0.00 | 0.00 | 63 | 757.5 |
| 20260506133030 | 17 | 196 | 4.8 | 8.0 | 0.00 | 0.00 | 0.00 | 63 | 757.5 |
| 20260506132030 | 17 | 211 | 6.4 | 11.3 | 0.00 | 0.00 | 0.00 | 62 | 757.5 |
| 20260506131031 | 17 | 203 | 4.8 | 8.0 | 0.00 | 0.00 | 0.00 | 62 | 757.5 |
| 20260506125433 | 18 | 214 | 4.8 | 11.3 | 0.00 | 0.00 | 0.00 | 61 | 757.5 |
| 20260506124433 | 18 | 194 | 6.4 | 9.7 | 0.00 | 0.00 | 0.00 | 60 | 757.5 |
| 20260506123434 | 18 | 207 | 3.2 | 9.7 | 0.00 | 0.00 | 0.00 | 59 | 757.5 |
| 20260506121840 | 18 | 207 | 8.0 | 11.3 | 0.00 | 0.00 | 0.00 | 57 | 757.5 |
| 20260506120840 | 18 | 202 | 6.4 | 11.3 | 0.00 | 0.00 | 0.00 | 57 | 757.5 |
| 20260506115841 | 18 | 216 | 4.8 | 14.5 | 0.00 | 0.00 | 0.00 | 57 | 757.5 |
| 20260506114247 | 18 | 206 | 4.8 | 14.5 | 0.00 | 0.00 | 0.00 | 57 | 757.5 |
| 20260506113248 | 18 | 207 | 8.0 | 11.3 | 0.00 | 0.00 | 0.00 | 57 | 757.5 |
| 20260506112248 | 18 | 200 | 4.8 | 14.5 | 0.00 | 0.00 | 0.00 | 57 | 757.5 |
| 20260506110652 | 18 | 203 | 6.4 | 12.9 | 0.00 | 0.00 | 0.00 | 57 | 757.5 |
| 20260506105653 | 18 | 213 | 6.4 | 11.3 | 0.00 | 0.00 | 0.00 | 56 | 757.5 |
| 20260506104653 | 18 | 208 | 8.0 | 14.5 | 0.00 | 0.00 | 0.00 | 56 | 757.5 |
| 20260506103010 | 18 | 204 | 6.4 | 14.5 | 0.00 | 0.00 | 0.00 | 56 | 757.5 |
| 20260506102010 | 18 | 216 | 3.2 | 9.7 | 0.00 | 0.00 | 0.00 | 56 | 757.5 |
| 20260506101009 | 18 | 209 | 4.8 | 11.3 | 0.00 | 0.00 | 0.00 | 55 | 757.5 |
| 20260506095419 | 18 | 208 | 8.0 | 12.9 | 0.00 | 0.00 | 0.00 | 55 | 757.5 |
| 20260506094419 | 19 | 200 | 6.4 | 9.7 | 0.00 | 0.00 | 0.00 | 55 | 757.5 |
| 20260506093418 | 19 | 198 | 4.8 | 11.3 | 0.00 | 0.00 | 0.00 | 55 | 757.5 |
| 20260506091834 | 19 | 207 | 6.4 | 11.3 | 0.00 | 0.00 | 0.00 | 55 | 757.5 |
| 20260506090834 | 19 | 212 | 8.0 | 12.9 | 0.00 | 0.00 | 0.00 | 55 | 757.5 |
| 20260506085834 | 19 | 213 | 8.0 | 14.5 | 0.00 | 0.00 | 0.00 | 55 | 757.5 |
| 20260506084239 | 19 | 203 | 4.8 | 11.3 | 0.00 | 0.00 | 0.00 | 54 | 757.5 |
| 20260506083239 | 19 | 209 | 4.8 | 12.9 | 0.00 | 0.00 | 0.00 | 54 | 757.5 |
| 20260506082239 | 19 | 207 | 6.4 | 9.7 | 0.00 | 0.00 | 0.00 | 53 | 757.5 |
| 20260506080658 | 20 | 200 | 4.8 | 9.7 | 0.00 | 0.00 | 0.00 | 53 | 757.5 |
| 20260506073131 | 20 | 210 | 8.0 | 14.5 | 0.00 | 0.00 | 0.00 | 51 | 757.5 |
| 20260506072131 | 20 | 214 | 6.4 | 14.5 | 0.00 | 0.00 | 0.00 | 51 | 757.5 |
| 20260506071131 | 20 | 207 | 6.4 | 11.3 | 0.00 | 0.00 | 0.00 | 50 | 757.5 |
| 20260506062028 | 20 | 206 | 8.0 | 9.7 | 0.00 | 0.00 | 0.00 | 47 | 757.5 |
| 20260506061028 | 20 | 199 | 4.8 | 11.3 | 0.00 | 0.00 | 0.00 | 46 | 757.5 |
| 20260506050911 | 20 | 210 | 4.8 | 8.0 | 0.00 | 0.00 | 0.00 | 44 | 757.5 |
| 20260506044912 | 20 | 183 | 3.2 | 8.0 | 0.00 | 0.00 | 0.00 | 44 | 757.5 |
| 20260506043334 | 20 | 211 | 1.6 | 4.8 | 0.00 | 0.00 | 0.00 | 44 | 757.5 |
| 20260506042337 | 21 | 211 | 1.6 | 4.8 | 0.00 | 0.00 | 0.00 | 44 | 757.5 |
| 20260506041335 | 21 | 209 | 4.8 | 8.0 | 0.00 | 0.00 | 0.00 | 43 | 757.5 |
| 20260506035758 | 21 | 195 | 1.6 | 6.4 | 0.00 | 0.00 | 0.00 | 42 | 757.5 |
| 20260506034758 | 21 | 195 | 3.2 | 8.0 | 0.00 | 0.00 | 0.00 | 42 | 757.5 |
| 20260506033758 | 21 | 202 | 3.2 | 6.4 | 0.00 | 0.00 | 0.00 | 42 | 757.5 |
| 20260506032235 | 21 | 214 | 1.6 | 6.4 | 0.00 | 0.00 | 0.00 | 41 | 757.5 |
| 20260506031235 | 21 | 207 | 4.8 | 8.0 | 0.00 | 0.00 | 0.00 | 41 | 757.5 |
| 20260506030234 | 21 | 202 | 3.2 | 9.7 | 0.00 | 0.00 | 0.00 | 41 | 757.5 |
| 20260506025235 | 21 | 213 | 3.2 | 6.4 | 0.00 | 0.00 | 0.00 | 41 | 757.5 |
| 20260506024235 | 21 | 201 | 3.2 | 6.4 | 0.00 | 0.00 | 0.00 | 40 | 757.5 |
| 20260506022702 | 21 | 196 | 4.8 | 8.0 | 0.00 | 0.00 | 0.00 | 38 | 757.5 |
| 20260506021702 | 22 | 208 | 4.8 | 8.0 | 0.00 | 0.00 | 0.00 | 38 | 757.5 |
| 20260506020702 | 22 | 203 | 4.8 | 6.4 | 0.00 | 0.00 | 0.00 | 38 | 757.5 |
| 20260506015135 | 22 | 194 | 3.2 | 8.0 | 0.00 | 0.00 | 0.00 | 37 | 757.5 |
| 20260506014135 | 22 | 199 | 3.2 | 8.0 | 0.00 | 0.00 | 0.00 | 36 | 757.5 |
| 20260506013135 | 22 | 208 | 4.8 | 9.7 | 0.00 | 0.00 | 0.00 | 35 | 757.5 |
| 20260506011558 | 23 | 205 | 3.2 | 6.4 | 0.00 | 0.00 | 0.00 | 34 | 757.5 |